Torna al catalogo

COSMOS 2570

AttivoNavigazioneLEO
NORAD 58148·PAYLOAD·🇷🇺 Russia

Lanciato Oct 27, 2023 da Plesetsk Cosmodrome

Loading…

Prossimi Passaggi (prossime 24 ore)

TLE

AggiornatoSource: Space-Track

Epoca: Sep 14, 2026, 15:04 UTC

1 58148U 23165A   26257.62809737 -.00000059  00000-0  11643-4 0  9991
2 58148  67.1482  72.0496 0006721 267.5832  92.4483 13.96676626147120

Traccia COSMOS 2570 in tempo reale con AllMySat

Download on the App Store